Location: *
(45.0500°N, 12.0500°E)
Time: 06:49:09
(UTC+00:00)

Cosmos 407 Rocket - Pass Details

Date: 09 April 2020
Orbit: 743 x 787 km, 74.0° (Epoch: 02 June)

Event Time Altitude Azimuth Distance (km) Brightness Sun altitude
Rises 19:02:26 0° 206° (SSW) 3,186 6.7 -12.9°
Reaches altitude 10° 19:04:48 10° 208° (SSW) 2,261 6.0 -13.3°
Maximum altitude 19:09:54 70° 293° (WNW) 793 3.8 -14.1°
Drops below altitude 10° 19:15:01 10° 17° (NNE) 2,266 6.1 -14.9°
Sets 19:17:24 0° 20° (NNE) 3,194 6.8 -15.2°
